Location: Apeadero de Los Molinos-Guadarrama
(40.7091°N, 4.0689°W)
Time: 11:56:16
(UTC+00:00)

Cosmos 2218 Rocket - Pass Details

Date: 14 May 2021
Orbit: 957 x 1005 km, 82.9° (Epoch: 18 June)

Event Time Altitude Azimuth Distance (km) Brightness Sun altitude
Rises 23:30:23 0° 347° (NNW) 3,697 8.2 -29.6°
Reaches altitude 10° 23:32:58 10° 342° (NNW) 2,752 7.3 -29.7°
Maximum altitude 23:39:00 49° 269° (W) 1,260 4.5 -29.9°
Enters shadow 23:39:21 49° 259° (W) 1,268 4.5 -29.9°
